• In Uzbekistan
  • List of Countries
  • For 7 days
  • Water Temperature
  • Satellite Maps
  • Weather Map
  • Weather Widgets
  • user-avatar
    Login

    Hourly Weather Jewłach

    Today, 23 July, Sunday

    Time Temperature Precipitation Wind Pressure Humidity
    00:00 +30°C° 0 mm 1 mps 757 mmHg 30%
    01:00 +30°C° 0 mm 1 mps 757 mmHg 30%
    02:00 +29°C° 0 mm 1 mps 756 mmHg 30%
    03:00 +29°C° 0 mm 1 mps 756 mmHg 30%
    04:00 +29°C° 0 mm 2 mps 756 mmHg 30%
    05:00 +30°C° 0 mm 2 mps 756 mmHg 30%
    06:00 +30°C° 0 mm 2 mps 756 mmHg 30%
    07:00 +33°C° 0 mm 3 mps 756 mmHg 27%
    08:00 +35°C° 0 mm 3 mps 756 mmHg 23%
    09:00 +37°C° 0 mm 3 mps 755 mmHg 20%
    10:00 +38°C° 0 mm 3 mps 755 mmHg 18%
    11:00 +39°C° 0 mm 3 mps 754 mmHg 17%
    12:00 +40°C° 0 mm 2 mps 754 mmHg 16%
    13:00 +41°C° 0 mm 2 mps 753 mmHg 15%
    14:00 +42°C° 0 mm 2 mps 753 mmHg 14%
    15:00 +42°C° 0 mm 2 mps 753 mmHg 14%
    16:00 +42°C° 0 mm 2 mps 753 mmHg 15%
    17:00 +42°C° 0 mm 2 mps 753 mmHg 15%
    18:00 +41°C° 0 mm 2 mps 753 mmHg 16%
    19:00 +39°C° 0 mm 3 mps 754 mmHg 18%
    20:00 +37°C° 0 mm 3 mps 754 mmHg 20%
    21:00 +35°C° 0 mm 3 mps 755 mmHg 22%
    22:00 +34°C° 0 mm 2 mps 755 mmHg 25%
    23:00 +32°C° 0 mm 2 mps 755 mmHg 28%

    Tomorrow, 24 July, Monday

    Time Temperature Precipitation Wind Pressure Humidity
    00:00 +31°C° 0 mm 2 mps 756 mmHg 32%
    01:00 +31°C° 0 mm 2 mps 756 mmHg 33%
    02:00 +30°C° 0 mm 2 mps 756 mmHg 34%
    03:00 +30°C° 0 mm 2 mps 756 mmHg 35%
    04:00 +30°C° 0 mm 2 mps 756 mmHg 36%
    05:00 +30°C° 0 mm 2 mps 756 mmHg 37%
    06:00 +30°C° 0 mm 2 mps 756 mmHg 38%
    07:00 +32°C° 0 mm 2 mps 756 mmHg 34%
    08:00 +34°C° 0 mm 2 mps 756 mmHg 30%
    09:00 +36°C° 0 mm 2 mps 756 mmHg 26%
    10:00 +37°C° 0 mm 2 mps 755 mmHg 24%
    11:00 +39°C° 0 mm 3 mps 755 mmHg 22%
    12:00 +41°C° 0 mm 4 mps 755 mmHg 20%
    13:00 +42°C° 0 mm 5 mps 754 mmHg 19%
    14:00 +42°C° 0 mm 5 mps 754 mmHg 19%
    15:00 +44°C° 0 mm 6 mps 753 mmHg 18%
    16:00 +42°C° 0 mm 6 mps 753 mmHg 20%
    17:00 +41°C° 0 mm 6 mps 753 mmHg 22%
    18:00 +41°C° 0 mm 6 mps 753 mmHg 23%
    19:00 +39°C° 0 mm 6 mps 754 mmHg 27%
    20:00 +36°C° 0 mm 5 mps 754 mmHg 31%
    21:00 +33°C° 0 mm 5 mps 755 mmHg 35%
    22:00 +32°C° 0 mm 4 mps 755 mmHg 38%
    23:00 +30°C° 0 mm 3 mps 755 mmHg 41%

    Day after tomorrow, 25 July, Tuesday

    Time Temperature Precipitation Wind Pressure Humidity
    00:00 +30°C° 0 mm 3 mps 755 mmHg 45%
    01:00 +29°C° 0 mm 2 mps 755 mmHg 46%
    02:00 +28°C° 0 mm 2 mps 755 mmHg 46%
    03:00 +28°C° 0 mm 1 mps 754 mmHg 47%
    04:00 +28°C° 0 mm 1 mps 754 mmHg 45%
    05:00 +29°C° 0 mm 1 mps 754 mmHg 44%
    06:00 +29°C° 0 mm 1 mps 754 mmHg 42%
    07:00 +31°C° 0 mm 1 mps 754 mmHg 38%
    08:00 +34°C° 0 mm 2 mps 754 mmHg 35%
    09:00 +35°C° 0 mm 2 mps 754 mmHg 31%
    10:00 +37°C° 0 mm 2 mps 753 mmHg 27%
    11:00 +38°C° 0 mm 2 mps 753 mmHg 24%
    12:00 +39°C° 0 mm 1 mps 752 mmHg 21%
    13:00 +40°C° 0 mm 2 mps 752 mmHg 20%
    14:00 +41°C° 0 mm 2 mps 751 mmHg 19%
    15:00 +41°C° 0 mm 2 mps 751 mmHg 18%
    16:00 +41°C° 0.1 mm 2 mps 751 mmHg 18%
    17:00 +41°C° 0.1 mm 2 mps 751 mmHg 18%
    18:00 +41°C° 0.1 mm 2 mps 751 mmHg 18%
    19:00 +38°C° 0 mm 3 mps 752 mmHg 21%
    20:00 +36°C° 0 mm 3 mps 752 mmHg 24%
    21:00 +34°C° 0 mm 3 mps 753 mmHg 27%
    22:00 +33°C° 0.1 mm 3 mps 753 mmHg 30%
    23:00 +31°C° 0.1 mm 2 mps 753 mmHg 34%

    26 July, Wednesday

    Time Temperature Precipitation Wind Pressure Humidity
    00:00 +31°C° 0.1 mm 1 mps 753 mmHg 37%
    01:00 +30°C° 0 mm 1 mps 753 mmHg 38%
    02:00 +30°C° 0 mm 1 mps 753 mmHg 39%
    03:00 +29°C° 0 mm 1 mps 753 mmHg 40%
    04:00 +30°C° 0 mm 2 mps 753 mmHg 38%
    05:00 +30°C° 0 mm 2 mps 753 mmHg 37%
    06:00 +30°C° 0 mm 3 mps 753 mmHg 36%
    07:00 +33°C° 0 mm 3 mps 753 mmHg 31%
    08:00 +35°C° 0 mm 3 mps 753 mmHg 27%
    09:00 +37°C° 0 mm 4 mps 753 mmHg 22%
    10:00 +38°C° 0 mm 3 mps 752 mmHg 21%
    11:00 +39°C° 0 mm 3 mps 752 mmHg 20%
    12:00 +40°C° 0 mm 2 mps 752 mmHg 19%
    13:00 +41°C° 0 mm 2 mps 751 mmHg 18%
    14:00 +42°C° 0 mm 1 mps 751 mmHg 18%
    15:00 +43°C° 0 mm 1 mps 751 mmHg 17%
    16:00 +42°C° 0 mm 1 mps 751 mmHg 17%
    17:00 +42°C° 0 mm 1 mps 752 mmHg 18%
    18:00 +42°C° 0 mm 1 mps 752 mmHg 19%
    19:00 +39°C° 0 mm 1 mps 753 mmHg 21%
    20:00 +37°C° 0 mm 2 mps 753 mmHg 24%
    21:00 +35°C° 0 mm 3 mps 754 mmHg 27%
    22:00 +34°C° 0 mm 3 mps 754 mmHg 30%
    23:00 +32°C° 0 mm 2 mps 754 mmHg 33%

    27 July, Thursday

    Time Temperature Precipitation Wind Pressure Humidity
    00:00 +31°C° 0 mm 2 mps 755 mmHg 36%
    01:00 +31°C° 0 mm 2 mps 755 mmHg 36%
    02:00 +30°C° 0 mm 2 mps 755 mmHg 36%
    03:00 +30°C° 0 mm 1 mps 755 mmHg 36%
    04:00 +31°C° 0 mm 2 mps 755 mmHg 34%
    05:00 +31°C° 0 mm 2 mps 755 mmHg 33%
    06:00 +31°C° 0 mm 2 mps 756 mmHg 31%
    07:00 +34°C° 0 mm 3 mps 756 mmHg 27%
    08:00 +37°C° 0 mm 3 mps 755 mmHg 23%
    09:00 +39°C° 0 mm 3 mps 755 mmHg 19%
    10:00 +40°C° 0 mm 3 mps 755 mmHg 18%
    11:00 +41°C° 0 mm 2 mps 755 mmHg 17%
    12:00 +42°C° 0 mm 2 mps 754 mmHg 16%
    13:00 +43°C° 0 mm 2 mps 754 mmHg 15%
    14:00 +43°C° 0 mm 1 mps 754 mmHg 15%
    15:00 +44°C° 0 mm 1 mps 754 mmHg 14%
    16:00 +44°C° 0 mm 1 mps 754 mmHg 15%
    17:00 +43°C° 0 mm 2 mps 754 mmHg 16%
    18:00 +43°C° 0 mm 2 mps 754 mmHg 16%
    19:00 +42°C° 0 mm 3 mps 755 mmHg 20%
    20:00 +40°C° 0 mm 4 mps 755 mmHg 23%
    21:00 +36°C° 0 mm 5 mps 756 mmHg 27%
    22:00 +35°C° 0 mm 4 mps 756 mmHg 30%
    23:00 +34°C° 0 mm 3 mps 757 mmHg 33%

    28 July, Friday

    Time Temperature Precipitation Wind Pressure Humidity
    00:00 +33°C° 0 mm 3 mps 757 mmHg 36%
    01:00 +32°C° 0 mm 2 mps 757 mmHg 36%
    02:00 +31°C° 0 mm 2 mps 757 mmHg 37%
    03:00 +31°C° 0 mm 2 mps 757 mmHg 38%
    04:00 +31°C° 0 mm 1 mps 757 mmHg 37%
    05:00 +32°C° 0 mm 1 mps 758 mmHg 36%
    06:00 +32°C° 0 mm 1 mps 758 mmHg 36%
    07:00 +34°C° 0 mm 1 mps 758 mmHg 32%
    08:00 +36°C° 0 mm 1 mps 757 mmHg 29%
    09:00 +39°C° 0 mm 1 mps 757 mmHg 26%
    10:00 +40°C° 0 mm 1 mps 757 mmHg 24%
    11:00 +41°C° 0 mm 2 mps 757 mmHg 22%
    12:00 +42°C° 0 mm 2 mps 756 mmHg 20%
    13:00 +44°C° 0 mm 3 mps 756 mmHg 19%
    14:00 +45°C° 0 mm 3 mps 756 mmHg 18%
    15:00 +46°C° 0 mm 3 mps 756 mmHg 17%
    16:00 +45°C° 0 mm 4 mps 756 mmHg 18%
    17:00 +45°C° 0 mm 4 mps 756 mmHg 18%
    18:00 +45°C° 0 mm 5 mps 757 mmHg 19%
    19:00 +42°C° 0 mm 5 mps 757 mmHg 21%
    20:00 +40°C° 0 mm 5 mps 758 mmHg 24%
    21:00 +37°C° 0 mm 5 mps 759 mmHg 27%
    22:00 +36°C° 0 mm 5 mps 759 mmHg 30%
    23:00 +35°C° 0 mm 4 mps 759 mmHg 32%
    Show more